TIANWANG 1A (TW-1A)
1 40928U 15051D   19297.84855324  .00002194  00000-0  54441-4 0  9990
2 40928  97.1356 326.2894 0010136 336.8725  16.5383 15.41386648228908
LAPAN A2
1 40931U 15052B   19297.14045359  .00000384  00000-0 -35458-4 0  9994
2 40931   5.9981 227.6653 0011199 163.2434 196.8986 14.76614514220130
LQSAT
1 40958U 15057A   19297.73978744 +.00000003 +00000-0 +80418-5 0  9990
2 40958 097.8861 003.3916 0018057 186.0658 174.0334 14.73092895217666
CHUBUSAT 2
1 41338U 16012B   19297.70887653  .00000350  00000-0  20487-4 0  9994
2 41338  31.0039  51.1794 0013944 291.4793  68.4355 15.00197198202152
CHUBUSAT 3
1 41339U 16012C   19297.73004408  .00000302  00000-0  16688-4 0  9992
2 41339  31.0105  48.9722 0013813 299.1525  60.7729 15.00368927202155
OUFTI-1
1 41458U 16025C   19297.76062505 +.00001126 +00000-0 +61429-4 0  9991
2 41458 098.1005 031.1198 0164391 286.5313 071.7909 15.06099328191841
E-STAR-2
1 41459U 16025D   19297.80827882  .00001417  00000-0  76487-4 0  9997
2 41459  98.1001  30.7569 0165819 287.7237  70.5943 15.05721624191822
AAUSAT 4
1 41460U 16025E   19297.81931263  .00001076  00000-0  57869-4 0  9993
2 41460  98.0921  32.3392 0155841 279.2431  79.1202 15.07708865191975
NUSAT 1
1 41557U 16033B   19297.86632385 +.00001456 +00000-0 +56831-4 0  9997
2 41557 097.4145 024.6136 0013202 198.4869 161.5892 15.27465106189657
BEESAT 4
1 41619U 16040W   19297.74501157 +.00001372 +00000-0 +60593-4 0  9990
2 41619 097.3536 357.5021 0009706 297.0671 062.9575 15.23391559173359
PRATHAM
1 41783U 16059A   19297.76843744 +.00000049 +00000-0 +18840-4 0  9993
2 41783 098.0528 354.4236 0033051 343.4549 016.5572 14.63015595164273
ALSAT 1N
1 41789U 16059G   19297.85270737 +.00000074 +00000-0 +23024-4 0  9993
2 41789 098.0557 356.7834 0027799 332.4908 027.4808 14.64269807164405
NAYIF 1
1 42017U 17008BX  19297.72491625 +.00001544 +00000-0 +63170-4 0  9999
2 42017 097.3904 003.4292 0007902 081.5003 278.7131 15.25817378149441
MAX VALIER SAT
1 42778U 17036P   19297.72371335 +.00000949 +00000-0 +44214-4 0  9995
2 42778 097.3401 352.4789 0013687 130.2934 229.9501 15.22198866129715
